sat.trackr.live / text

‹ back to catalog

HULIANWANG DIGUI-32

NORAD 64285 · 2025-121C

PAYLOAD ACTIVE UNKNOWN

§ Identity

Operator
Country
PRC
Launch date
2025-06-05
Launch site
TAISC
Launch vehicle
Mass (kg)
RCS (m²)

External: N2YO · Heavens-Above · Gunter

§ Orbital elements

Epoch: 2026-09-21T22:19:36.349248Z

Period
108.73 min
Inclination
86.5003°
Eccentricity
0.0001675
Mean motion
13.24412705 rev/d
Perigee alt
1,166.6 km
Apogee alt
1,169.2 km
Semi-major
7,546.0 km
B*
8.3293e-5
RAAN
340.7431°
Arg perigee
103.8969°
Mean anomaly
256.2351°
Rev number
6,296

§ Raw data

HULIANWANG DIGUI-321 64285U 25121C   26264.93028182  .00000050  00000+0  83293-4 0  99922 64285  86.5003 340.7431 0001675 103.8969 256.2351 13.24412705 62962

JSON: /api/v1/satellites/64285 · /tle

For live sub-satellite position, see the globe view (requires WebGL).

§ Visibility from observer

Set your observer location to see the next 7 days of passes ≥ 10°. The values pass through the URL so the page stays shareable.

No JS? Fill the form by hand. The geolocation button needs JavaScript.